Location: Ames
(42.0350°N, 93.6200°W)
Time: 06:49:47
(UTC-05:00)

ISS - All Passes

Search period start: 27 May 2015 00:00
Search period end: 06 June 2015 00:00
Orbit: 399 x 404 km, 51.6° (Epoch: 27 May)

Date Brightness Start Highest point End Pass type
(mag) Time Alt. Az. Time Alt. Az. Time Alt. Az.
27 May - 01:22:10 10° W 01:25:11 34° NNW 01:28:12 10° NE visible
27 May - 03:00:13 10° NW 03:02:18 16° N 03:04:23 10° NE visible
27 May - 04:37:08 10° NW 04:39:37 20° NNE 04:42:07 10° ENE visible
27 May - 06:13:10 10° NW 06:16:27 76° NNE 06:19:43 10° ESE daylight
27 May - 07:50:56 10° WSW 07:52:30 13° SW 07:53:58 10° SSW daylight
27 May - 22:53:29 10° S 22:55:42 17° SE 22:57:58 10° E night (unlit)
28 May - 00:28:39 10° WSW 00:31:51 56° NNW 00:35:04 10° NE visible
28 May - 02:06:28 10° WNW 02:08:48 18° NNW 02:11:07 10° NNE visible
28 May - 03:43:56 10° NNW 03:46:07 16° N 03:48:20 10° NE visible
28 May - 05:20:01 10° NW 05:23:10 43° NNE 05:26:18 10° ESE daylight
28 May - 06:56:44 10° W 06:59:27 24° SW 07:02:08 10° S daylight
28 May - 23:35:22 10° SW 23:38:36 79° SE 23:41:52 10° ENE visible
29 May - 01:12:41 10° WNW 01:15:19 22° NNW 01:17:58 10° NE visible
29 May - 02:50:35 10° NW 02:52:35 15° N 02:54:37 10° NE visible
29 May - 04:26:55 10° NW 04:29:47 28° NNE 04:32:41 10° E visible
29 May - 06:03:10 10° WNW 06:06:20 46° SW 06:09:28 10° SE daylight
29 May - 22:42:23 10° SSW 22:45:25 39° SE 22:48:29 10° ENE visible
30 May - 00:18:57 10° W 00:21:53 30° NNW 00:24:50 10° NE visible
30 May - 01:57:00 10° NW 01:59:03 15° N 02:01:05 10° NE visible
30 May - 03:33:47 10° NW 03:36:20 21° NNE 03:38:55 10° ENE visible
30 May - 05:09:50 10° NW 05:13:07 88° NNE 05:16:23 10° SE visible
30 May - 06:48:14 10° WSW 06:49:07 11° SW 06:49:52 10° SW daylight
30 May - 21:49:50 10° S 21:52:17 20° SE 21:54:48 10° E visible
30 May - 23:25:21 10° WSW 23:28:30 48° NNW 23:31:41 10° NE visible
31 May - 01:03:15 10° NW 01:05:30 17° N 01:07:45 10° NNE visible
31 May - 02:40:35 10° NNW 02:42:50 17° N 02:45:05 10° NE visible
31 May - 04:16:38 10° NW 04:19:49 48° NNE 04:23:00 10° ESE visible
31 May - 05:53:30 10° W 05:56:02 21° SW 05:58:32 10° S daylight
31 May - 20:58:35 10° SE 20:59:13 11° SE 21:00:00 10° ESE daylight
31 May - 22:31:58 10° SW 22:35:12 89° NNW 22:38:28 10° NE visible
01 Jun - 00:09:25 10° WNW 00:11:59 21° NNW 00:14:32 10° NE visible
01 Jun - 01:47:14 10° NW 01:49:16 15° N 01:51:18 10° NE visible
01 Jun - 03:23:29 10° NW 03:26:26 30° NNE 03:29:23 10° E visible
01 Jun - 04:59:49 10° WNW 05:02:54 39° SW 05:05:57 10° SSE visible
01 Jun - 21:38:51 10° SW 21:41:58 46° SE 21:45:06 10° ENE visible
01 Jun - 23:15:38 10° W 23:18:30 28° NNW 23:21:22 10° NE visible
02 Jun - 00:53:40 10° NW 00:55:41 15° N 00:57:42 10° NE visible
02 Jun - 02:30:19 10° NW 02:32:57 22° NNE 02:35:37 10° ENE visible
02 Jun - 04:06:25 10° WNW 04:09:40 79° SW 04:12:56 10° SE visible
02 Jun - 20:46:09 10° S 20:48:47 24° SE 20:51:29 10° E daylight
02 Jun - 22:21:57 10° WSW 22:25:04 43° NNW 22:28:11 10° NE visible
02 Jun - 23:59:55 10° NW 00:02:06 16° N 00:04:17 10° NNE visible
03 Jun - 01:37:06 10° NNW 01:39:25 18° NNE 01:41:45 10° ENE visible
03 Jun - 03:13:08 10° NW 03:16:22 55° NNE 03:19:34 10° ESE visible
03 Jun - 04:50:13 10° W 04:52:32 18° SW 04:54:46 10° S visible
03 Jun - 19:54:17 10° SSE 19:55:40 12° SE 19:57:11 10° ESE daylight
03 Jun - 21:28:28 10° WSW 21:31:42 77° NW 21:34:58 10° NE visible
03 Jun - 23:06:03 10° WNW 23:08:32 20° NNW 23:11:00 10° NE visible
04 Jun - 00:43:46 10° NW 00:45:50 16° N 00:47:54 10° NE visible
04 Jun - 02:19:57 10° NW 02:22:57 34° NNE 02:25:58 10° E visible
04 Jun - 03:56:22 10° WNW 03:59:22 33° SW 04:02:20 10° SSE visible
04 Jun - 20:35:15 10° SW 20:38:25 55° SE 20:41:36 10° ENE daylight
04 Jun - 22:12:12 10° W 22:15:00 26° NNW 22:17:48 10° NE visible
04 Jun - 23:50:14 10° NW 23:52:13 15° N 23:54:12 10° NE visible
05 Jun - 01:26:45 10° NW 01:29:28 24° NNE 01:32:11 10° ENE visible
05 Jun - 03:02:53 10° WNW 03:06:08 67° SW 03:09:21 10° SE visible
05 Jun - 19:42:24 10° SSW 19:45:11 27° SE 19:48:02 10° ENE daylight
05 Jun - 21:18:27 10° W 21:21:31 38° NNW 21:24:35 10° NE visible
05 Jun - 22:56:28 10° NW 22:58:36 16° N 23:00:43 10° NNE visible
